EW3970 Weather Reports


time (UTC)temp
C
wind
direction
speed
KPH
gust
KPH
rain 1hr
cm
rain 24hr
cm
rain mn
cm
humidity
%
barometer
mb
20260902153041 21 0 1.6 4.8 0.00 0.00 0.00 73 1016.0
20260902151540 21 0 0.0 6.4 0.00 0.00 0.00 74 1015.9
20260902150045 21 136 1.6 4.8 0.00 0.00 0.00 74 1015.9
20260902144540 20 0 0.0 4.8 0.00 0.00 0.00 76 1015.8
20260902143037 18 91 1.6 4.8 0.00 0.00 0.00 78 1015.8
20260902141547 18 84 0.0 3.2 0.00 0.00 0.00 81 1015.6
20260902140042 17 0 0.0 0.0 0.00 0.00 0.00 84 1015.5
20260902134548 16 0 0.0 0.0 0.00 0.00 0.00 86 1015.3
20260902133045 16 0 0.0 0.0 0.00 0.00 0.00 87 1015.1
20260902131544 16 0 0.0 0.0 0.00 0.00 0.00 86 1015.0
20260902130040 16 0 0.0 0.0 0.00 0.00 0.00 86 1014.9
20260902124545 16 0 0.0 0.0 0.00 0.00 0.00 86 1014.9
20260902123047 16 0 0.0 0.0 0.00 0.00 0.00 86 1015.0
20260902121541 16 0 0.0 0.0 0.00 0.00 0.00 85 1015.0
20260902120044 16 0 0.0 0.0 0.00 0.00 0.00 86 1014.9
20260902114546 17 0 0.0 0.0 0.00 0.00 0.00 86 1015.1
20260902113042 17 0 0.0 0.0 0.00 0.00 0.00 86 1015.1
20260902111537 17 0 0.0 0.0 0.00 0.00 0.00 86 1015.2
20260902110044 17 0 0.0 0.0 0.00 0.00 0.00 85 1015.3
20260902104544 17 0 0.0 0.0 0.00 0.00 0.00 85 1015.2
20260902103042 17 0 0.0 0.0 0.00 0.00 0.00 84 1015.4
20260902101539 17 0 0.0 1.6 0.00 0.00 0.00 83 1015.4
20260902100046 17 0 0.0 0.0 0.00 0.00 0.00 82 1015.5
20260902094541 17 0 0.0 0.0 0.00 0.00 0.00 83 1015.5
20260902093042 17 0 0.0 0.0 0.00 0.00 0.00 83 1015.5
20260902091541 17 0 0.0 0.0 0.00 0.00 0.00 82 1015.6
20260902090040 17 0 0.0 0.0 0.00 0.00 0.00 82 1015.7
20260902084548 17 0 0.0 0.0 0.00 0.00 0.00 83 1015.7
20260902083044 17 0 0.0 0.0 0.00 0.00 0.00 83 1015.7
20260902081551 17 0 0.0 0.0 0.00 0.00 0.00 83 1015.9
20260902080042 17 0 0.0 0.0 0.00 0.00 0.00 81 1015.8
20260902074606 18 0 0.0 0.0 0.00 0.00 0.00 81 1015.6
20260902073043 18 0 0.0 0.0 0.00 0.00 0.00 82 1015.5
20260902071543 18 0 0.0 0.0 0.00 0.00 0.00 81 1015.3
20260902070050 18 0 0.0 0.0 0.00 0.00 0.00 81 1015.2
20260902064547 18 0 0.0 0.0 0.00 0.00 0.00 81 1015.0
20260902063100 18 0 0.0 0.0 0.00 0.00 0.00 79 1015.1
20260902061542 19 0 0.0 0.0 0.00 0.00 0.00 78 1015.1
20260902060059 19 0 0.0 0.0 0.00 0.00 0.00 76 1015.0
20260902054552 20 0 0.0 1.6 0.00 0.00 0.00 75 1015.0
20260902053039 20 0 1.6 3.2 0.00 0.00 0.00 75 1015.0
20260902051547 20 0 0.0 4.8 0.00 0.00 0.00 75 1015.0
20260902050038 20 252 3.2 6.4 0.00 0.00 0.00 75 1015.0
20260902044541 20 239 1.6 4.8 0.00 0.00 0.00 76 1014.9
20260902043103 20 289 3.2 8.0 0.00 0.00 0.00 76 1014.6
20260902041601 21 293 3.2 8.0 0.00 0.00 0.00 76 1014.3
20260902040042 21 294 1.6 6.4 0.00 0.00 0.00 74 1014.2
20260902034548 21 232 3.2 8.0 0.00 0.00 0.00 73 1014.0
20260902033037 21 253 3.2 8.0 0.00 0.00 0.00 75 1013.8
20260902031546 21 226 1.6 4.8 0.00 0.00 0.00 75 1013.7
20260902030044 21 0 0.0 6.4 0.00 0.00 0.00 73 1013.5
20260902024542 22 0 0.0 1.6 0.00 0.00 0.00 71 1013.2
20260902023038 22 0 0.0 4.8 0.00 0.00 0.00 69 1013.2
20260902021541 23 0 0.0 0.0 0.00 0.00 0.00 64 1013.2
20260902020046 24 0 1.6 8.0 0.00 0.00 0.00 61 1013.2
20260902014552 25 250 1.6 4.8 0.00 0.00 0.00 57 1013.2
20260902013051 26 225 1.6 9.7 0.00 0.00 0.00 55 1013.2
20260902011540 26 238 3.2 9.7 0.00 0.00 0.00 55 1013.1
20260902010050 26 234 1.6 4.8 0.00 0.00 0.00 54 1013.4
20260902004547 26 0 3.2 12.9 0.00 0.00 0.00 54 1013.3
20260902003118 27 181 1.6 8.0 0.00 0.00 0.00 52 1013.4
20260902001545 27 186 1.6 6.4 0.00 0.00 0.00 51 1013.4
20260902000043 27 161 1.6 9.7 0.00 0.00 0.00 48 1013.6
20260901234545 28 229 1.6 6.4 0.00 0.00 0.00 50 1013.7
20260901233047 28 210 3.2 8.0 0.00 0.00 0.00 50 1013.5
20260901231555 28 229 3.2 6.4 0.00 0.00 0.00 50 1013.6
20260901230045 28 223 3.2 6.4 0.00 0.00 0.00 52 1013.6
20260901224543 27 250 4.8 11.3 0.00 0.00 0.00 52 1013.8
20260901223045 27 177 3.2 11.3 0.00 0.00 0.00 53 1013.9
20260901221545 26 200 8.0 19.3 0.00 0.00 0.00 56 1013.9
20260901220043 27 231 4.8 16.1 0.00 0.00 0.00 57 1014.1
20260901214542 27 269 3.2 9.7 0.00 0.00 0.00 54 1014.4
20260901213046 27 209 4.8 12.9 0.00 0.00 0.00 50 1014.4
20260901211540 28 237 6.4 17.7 0.00 0.00 0.00 49 1014.4
20260901210047 28 213 3.2 16.1 0.00 0.00 0.00 48 1014.4
20260901204543 27 267 4.8 11.3 0.00 0.00 0.00 50 1014.5
20260901203043 27 264 6.4 14.5 0.00 0.00 0.00 52 1014.6
20260901201540 28 238 4.8 11.3 0.00 0.00 0.00 53 1014.8
20260901200044 27 252 4.8 11.3 0.00 0.00 0.00 53 1014.9
20260901194544 27 262 1.6 12.9 0.00 0.00 0.00 56 1015.0
20260901193042 27 0 3.2 8.0 0.00 0.00 0.00 59 1015.1
20260901191544 26 262 3.2 11.3 0.00 0.00 0.00 61 1015.3
20260901190058 26 226 3.2 11.3 0.00 0.00 0.00 59 1015.4
20260901184541 26 283 8.0 14.5 0.00 0.00 0.00 61 1015.4
20260901183044 26 298 8.0 17.7 0.00 0.00 0.00 60 1015.4
20260901181544 27 0 0.0 8.0 0.00 0.00 0.00 58 1015.4
20260901180043 26 0 1.6 6.4 0.00 0.00 0.00 56 1015.4
20260901174548 26 171 1.6 4.8 0.00 0.00 0.00 58 1015.4
20260901173044 25 0 0.0 9.7 0.00 0.00 0.00 62 1015.4
20260901171545 25 0 0.0 4.8 0.00 0.00 0.00 62 1015.2
20260901170047 24 0 0.0 6.4 0.00 0.00 0.00 65 1015.3
20260901164552 23 0 0.0 6.4 0.00 0.00 0.00 67 1015.1
20260901163102 23 0 0.0 6.4 0.00 0.00 0.00 70 1015.1
20260901161541 22 0 0.0 6.4 0.00 0.00 0.00 71 1015.2
20260901160044 22 0 0.0 3.2 0.00 0.00 0.00 71 1015.2
20260901154551 22 0 0.0 4.8 0.00 0.00 0.00 75 1015.2